[[{"header":{"parameterUnit":"m.s-1","parameterCategory":1,"la1":30.2991,"la2":30.254,"lo1":-89.0895,"lo2":-89.0444,"dy":0.0017,"dx":0.0017,"nx":28,"ny":28,"refTime":"2025-06-04T03:00:00:Z","depth":0,"parameterNumber":2,"parameterNumberName":"U-component_of_WINDS"},"data":[0,0,0,0,0,0,0,0,0,0,0,0,0,0,0,0,0,0,0,0,0,0,0,0,0,0,0,0,0,0,0,0,0,0,0,0,0,0,0,0,0,0,0,0,0,0,0,0,0,0,0,0,0,0,0,0,0,0,-6.0033,-6.0034,0,-6.0143,-6.0144,-6.0146,-6.0083,-6.008,-6.0077,-6.0074,-6.0184,-6.019,-6.0195,0,0,0,0,0,0,0,0,0,0,0,0,0,-5.9766,-5.9771,-6.0033,-6.0035,-6.0036,-6.0143,-6.0144,-6.0146,-6.0084,-6.008,-6.0076,-6.0073,-6.0182,-6.0189,-6.0196,0,0,0,0,0,0,0,0,0,0,0,0,0,-5.9879,-5.9772,-6.0033,-6.0018,-6.0018,-6.0143,-6.0144,-6.0146,-6.0084,-6.008,-6.0075,-6.0071,-6.018,-6.0188,-6.0197,-6.0342,0,0,-6.0223,-6.0227,0,0,0,0,0,0,0,0,-5.9873,-5.9889,-6.0019,-6.0019,-6.0019,-6.0095,-6.009,-6.0212,-6.0086,-6.0059,-6.0074,-6.0069,-6.0158,-6.0168,-6.0199,-6.0347,-6.0352,-6.0224,-6.0229,-6.0233,-6.0235,0,0,0,0,0,0,0,-5.9865,-5.9884,-6.0076,-6.0021,-6.0021,-6.0004,-6.0015,-6.0113,-6.0133,-6.0061,-6.0057,-6.0071,-6.0157,-6.019,-6.0201,-6.0354,-6.0224,-6.0232,-6.0237,-6.024,-6.0622,-6.0627,0,0,0,0,0,0,-5.9859,-5.9878,-6.0073,-6.008,-5.9933,-6.0013,-6.0025,-6.0075,-6.0131,-6.0136,-6.0074,-6.0067,-6.0178,-6.0191,-6.0204,-6.0374,-6.0233,-6.0241,-6.0246,-6.0618,-6.0624,-6.0629,0,0,0,0,0,0,-5.9853,-5.9877,-6.0069,-5.9978,-6.0001,-6.0022,-6.0079,-6.008,-6.0113,-6.0142,-6.0145,-6.0105,-6.0175,-6.0192,-6.0307,-6.0377,-6.0245,-6.0253,-6.0612,-6.0619,-6.0626,-6.0717,0,0,0,0,0,0,-5.9846,-5.9875,-5.9931,-5.998,-6.0006,-6.0171,-6.0083,-6.0085,-6.0128,-6.012,-6.0171,-6.0175,-6.0173,-6.0295,-6.0316,-6.0387,-6.026,-6.0605,-6.0615,-6.0624,-6.0708,-6.0727,-6.0743,0,0,0,0,0,-5.9836,-5.9953,-5.9935,-5.9958,-6.0077,-6.0175,-6.019,-6.0185,-6.0134,-6.019,-6.0208,-6.0174,-6.0367,-6.0307,-6.0331,-6.0405,-6.0601,-6.0612,-6.0623,-6.07,-6.0723,-6.0743,0,0,0,0,0,0,-5.9912,-5.9959,-5.9939,-6.0075,-6.0122,-6.0165,-6.0235,-6.0211,-6.0272,-6.0262,-6.0252,-6.0265,-6.0384,-6.0407,-6.0339,-6.0546,-6.0476,-6.0492,-6.0526,-6.0549,-6.0566,-6.0555,-6.0267,0,0,0,0,0,-5.9945,-6.0022,-6.0059,-6.0175,-6.0199,-6.0214,-6.0256,-6.0248,-6.0296,-6.0315,-6.0342,-6.0388,-6.0459,-6.0506,-6.0573,-6.0713,-6.072,-6.0775,-6.0793,-6.0807,-6.082,-6.0891,-6.0914,-6.0666,-6.0665,-6.0665,0,0,-6.0012,-6.0048,-6.0097,-6.0191,-6.0226,-6.0304,-6.023,-6.0317,-6.0373,-6.0328,-6.0437,-6.0459,-6.051,-6.0637,-6.0694,-6.0659,-6.0891,-6.0821,-6.0832,-6.0837,-6.0905,-6.0928,-6.0949,-6.0673,-6.0672,-6.0671,0,0,-6.0174,-6.0211,-6.031,-6.0347,-6.0401,-6.0409,-6.0433,-6.048,-6.0492,-6.0602,-6.0569,-6.0636,-6.076,-6.0796,-6.0831,-6.1007,-6.0975,-6.1029,-6.1119,-6.1188,-6.1208,-6.1225,-6.1283,-6.1304,-6.1043,-6.1043,-6.1043,0,-6.0251,-6.0368,-6.0363,-6.0451,-6.0492,-6.0456,-6.0554,-6.059,-6.0663,-6.0691,-6.0652,-6.0804,-6.0837,-6.0969,-6.1012,-6.1043,-6.1067,-6.1021,-6.1206,-6.1223,-6.1239,-6.1294,-6.1316,-6.1049,-6.1048,-6.1048,-6.1047,0,-6.0457,-6.0539,-6.0612,-6.0683,-6.0733,-6.0826,-6.0833,-6.0884,-6.0873,-6.0885,-6.0995,-6.1033,-6.1105,-6.1138,-6.1128,-6.1269,-6.1245,-6.1207,-6.1134,-6.1268,-6.1319,-6.1341,-6.1057,-6.1055,-6.1053,-6.1052,0,0,-6.0668,-6.0735,-6.0761,-6.0791,-6.0849,-6.0911,-6.1002,-6.1073,-6.1114,-6.1167,-6.124,-6.1345,-6.1309,-6.1348,-6.1342,-6.1404,-6.1535,-6.1357,-6.1358,-6.1385,-6.1687,-6.1712,-6.1737,-6.1517,-6.1521,-6.1524,-6.1681,0,-6.0829,-6.0987,-6.0985,-6.1131,-6.1204,-6.117,-6.1249,-6.1291,-6.1305,-6.1368,-6.1384,-6.1456,-6.1406,-6.1429,-6.1489,-6.1506,-6.1595,-6.1496,-6.1581,-6.1584,-6.1564,-6.1765,-6.1792,-6.1939,-6.1702,-6.1706,-6.1708,0,-6.1039,-6.1097,-6.125,-6.1293,-6.1324,-6.1394,-6.1457,-6.152,-6.1566,-6.1572,-6.1616,-6.16,-6.169,-6.1619,-6.174,-6.1673,-6.1708,-6.1722,-6.1728,-6.1731,-6.1651,-6.1769,-6.1986,-6.2006,-6.1741,-6.1738,-6.1736,0,-6.117,-6.1287,-6.1393,-6.1421,-6.1476,-6.1525,-6.155,-6.1593,-6.1635,-6.1691,-6.1717,-6.1783,-6.1818,-6.1869,-6.187,-6.1819,-6.1991,-6.1922,-6.1995,-6.1995,-6.2029,-6.2026,-6.2249,-6.2061,-6.206,-6.206,-6.206,0,-6.1348,-6.1441,-6.1452,-6.1516,-6.1619,-6.1616,-6.1718,-6.1738,-6.1776,-6.1842,-6.1819,-6.1882,-6.1882,-6.1945,-6.1947,-6.2045,-6.2062,-6.2067,-6.2065,-6.2066,-6.2065,-6.2086,-6.2073,-6.2066,-6.2065,-6.2063,-6.2062,0,-6.151,-6.1522,-6.1634,-6.1677,-6.169,-6.1763,-6.1799,-6.1859,-6.1871,-6.1955,-6.1975,-6.1994,-6.2067,-6.2074,-6.216,-6.2161,-6.2277,-6.2268,-6.2261,-6.2257,-6.2329,-6.232,-6.2569,-6.26,-6.2396,-6.2398,-6.24,0,-6.1621,-6.1692,-6.1742,-6.1784,-6.1812,-6.1882,-6.1924,-6.1924,-6.1969,-6.2027,-6.208,-6.2151,-6.2207,-6.2325,-6.2345,-6.241,-6.2398,-6.2481,-6.2407,-6.2405,-6.2393,-6.2387,-6.2392,-6.2493,-6.2496,-6.2498,-6.2499,0,-6.1814,-6.1815,-6.1878,-6.1942,-6.1993,-6.2044,-6.2091,-6.2127,-6.2133,-6.2184,-6.2258,-6.2302,-6.2389,-6.2458,-6.2521,-6.2545,-6.2522,-6.2523,-6.2542,-6.2541,-6.2533,-6.2533,-6.2294,-6.2516,-6.2514,-6.2513,-6.2512,-6.2511,-6.195,-6.201,-6.2054,-6.2123,-6.2159,-6.2203,-6.2261,-6.228,-6.2342,-6.2412,-6.2409,-6.249,-6.2533,-6.2615,-6.2645,-6.2707,-6.2679,-6.2708,-6.2715,-6.2721,-6.2726,-6.2527,-6.2719,-6.2719,-6.2718,-6.2718,-6.2717,0,-6.2137,-6.2164,-6.2228,-6.2294,-6.2348,-6.2324,-6.2375,-6.2421,-6.2492,-6.2535,-6.2591,-6.2675,-6.2742,-6.2768,-6.2833,-6.2877,-6.2868,-6.2894,-6.2888,-6.2893,-6.275,-6.2724,-6.29,-6.29,-6.29,-6.29,-6.29,-6.29,-6.224,-6.2339,-6.2346,-6.2461,-6.2487,-6.2566,-6.2597,-6.2636,-6.267,-6.2765,-6.282,-6.2837,-6.2872,-6.2939,-6.2999,-6.3005,-6.3027,-6.3057,-6.3058,-6.2922,-6.2904,-6.2886,-6.2861,-6.3063,-6.3064,-6.3195,-6.3197,-6.3197]},{"header":{"parameterUnit":"m.s-1","parameterCategory":1,"la1":30.2991,"la2":30.254,"lo1":-89.0895,"lo2":-89.0444,"dy":0.0017,"dx":0.0017,"nx":28,"ny":28,"refTime":"2025-06-04T03:00:00:Z","depth":0,"parameterNumber":3,"parameterNumberName":"V-component_of_WINDS"},"data":[0,0,0,0,0,0,0,0,0,0,0,0,0,0,0,0,0,0,0,0,0,0,0,0,0,0,0,0,0,0,0,0,0,0,0,0,0,0,0,0,0,0,0,0,0,0,0,0,0,0,0,0,0,0,0,0,0,0,3.5613,3.5613,0,3.5603,3.5603,3.5603,3.5495,3.5493,3.549,3.5488,3.5476,3.5479,3.5481,0,0,0,0,0,0,0,0,0,0,0,0,0,3.5539,3.5541,3.5613,3.5613,3.5613,3.5603,3.5603,3.5603,3.5496,3.5493,3.5489,3.5486,3.5476,3.5478,3.5481,0,0,0,0,0,0,0,0,0,0,0,0,0,3.5555,3.5542,3.5613,3.5558,3.5553,3.5603,3.5603,3.5602,3.5497,3.5493,3.5489,3.5485,3.5475,3.5478,3.5481,3.5582,0,0,3.5491,3.5493,0,0,0,0,0,0,0,0,3.5554,3.5557,3.5566,3.5562,3.5557,3.5546,3.5573,3.5596,3.5498,3.5518,3.5488,3.5483,3.5503,3.5504,3.5511,3.5582,3.5581,3.5492,3.5494,3.5495,3.5496,0,0,0,0,0,0,0,3.5553,3.5557,3.5609,3.5567,3.5561,3.5534,3.5532,3.5576,3.5533,3.5516,3.5508,3.5509,3.5499,3.5508,3.551,3.5581,3.5492,3.5495,3.5497,3.5498,3.5734,3.5739,0,0,0,0,0,0,3.5559,3.5557,3.5609,3.5608,3.5545,3.5539,3.5536,3.5554,3.5532,3.5525,3.5512,3.5504,3.5504,3.5506,3.5509,3.5624,3.5495,3.5498,3.55,3.573,3.5735,3.574,0,0,0,0,0,0,3.5558,3.5565,3.5609,3.5581,3.5584,3.5544,3.5565,3.5556,3.5563,3.5529,3.5521,3.5528,3.5501,3.5504,3.5565,3.5623,3.55,3.5503,3.5725,3.5732,3.5738,3.5858,0,0,0,0,0,0,3.5557,3.5565,3.5603,3.5582,3.5586,3.5666,3.5568,3.5558,3.557,3.5559,3.5542,3.5536,3.5498,3.556,3.5568,3.5625,3.5505,3.572,3.5728,3.5736,3.5848,3.5868,3.5884,0,0,0,0,0,3.5554,3.5637,3.5606,3.5612,3.5633,3.567,3.5672,3.5627,3.5575,3.5612,3.5591,3.5536,3.5616,3.5568,3.5575,3.5634,3.5716,3.5726,3.5735,3.584,3.5864,3.5884,0,0,0,0,0,0,3.5665,3.5633,3.5598,3.5676,3.5677,3.5651,3.5697,3.5653,3.5667,3.5656,3.56,3.5597,3.5666,3.5656,3.5603,3.5731,3.5656,3.5668,3.5734,3.5756,3.5773,3.5773,3.5508,0,0,0,0,0,3.5699,3.5732,3.5702,3.5774,3.5776,3.5737,3.5752,3.5717,3.5715,3.5714,3.5696,3.5696,3.5721,3.5738,3.5759,3.5848,3.5842,3.5892,3.591,3.5925,3.5935,3.598,3.6002,3.5772,3.5772,3.5772,0,0,3.5768,3.5755,3.5779,3.5796,3.5792,3.5827,3.5738,3.5778,3.5804,3.572,3.5776,3.5764,3.576,3.5835,3.5867,3.5829,3.5997,3.5937,3.5949,3.5951,3.5992,3.6014,3.6034,3.5778,3.5777,3.5776,0,0,3.5912,3.5906,3.5965,3.5963,3.5959,3.5933,3.5948,3.593,3.5918,3.5974,3.5912,3.5941,3.5985,3.5985,3.599,3.6137,3.6087,3.6146,3.6237,3.6283,3.6301,3.6316,3.6367,3.6387,3.6156,3.6157,3.6157,0,3.5998,3.6049,3.6001,3.6046,3.6055,3.5983,3.6042,3.6043,3.6045,3.6053,3.6011,3.6065,3.6057,3.6131,3.6167,3.6174,3.6189,3.6146,3.6302,3.6317,3.6331,3.6379,3.6399,3.6164,3.6163,3.6162,3.6161,0,3.6155,3.6191,3.6239,3.6244,3.6259,3.6312,3.6272,3.6293,3.6258,3.6237,3.6294,3.6283,3.63,3.6316,3.6282,3.6385,3.6361,3.6312,3.6235,3.6361,3.6405,3.6423,3.6173,3.6171,3.6169,3.6167,0,0,3.6365,3.6344,3.6363,3.6364,3.6355,3.6382,3.6432,3.6449,3.6468,3.6473,3.6512,3.6552,3.6507,3.6513,3.6479,3.6519,3.6635,3.6464,3.6463,3.6495,3.6747,3.6783,3.6805,3.6603,3.6607,3.6609,3.6747,0,3.6502,3.6584,3.6544,3.6631,3.6664,3.6597,3.664,3.6639,3.6621,3.6646,3.6626,3.6655,3.6593,3.6596,3.6633,3.6613,3.6684,3.6603,3.6638,3.664,3.6639,3.6828,3.6866,3.6996,3.6764,3.6767,3.6769,0,3.6672,3.6685,3.6776,3.6762,3.6774,3.6813,3.6826,3.6852,3.685,3.6834,3.6843,3.6799,3.6847,3.6774,3.6838,3.6783,3.6796,3.6788,3.6792,3.6792,3.671,3.6831,3.7037,3.7056,3.6796,3.6794,3.6792,0,3.6814,3.6855,3.6914,3.6918,3.6903,3.6932,3.6928,3.6922,3.6935,3.6947,3.6955,3.6973,3.6982,3.6997,3.696,3.691,3.7029,3.6952,3.7016,3.7017,3.7042,3.704,3.725,3.7054,3.7054,3.7053,3.7053,0,3.697,3.7028,3.6978,3.7015,3.7078,3.7032,3.7095,3.7083,3.7079,3.7112,3.7056,3.7088,3.7038,3.7065,3.7037,3.7094,3.7099,3.7087,3.7078,3.709,3.7092,3.7096,3.7085,3.7058,3.7057,3.7056,3.7055,0,3.7138,3.7107,3.7168,3.715,3.7146,3.7194,3.7178,3.7211,3.719,3.7232,3.724,3.7207,3.7236,3.7202,3.7228,3.7209,3.7286,3.7265,3.7286,3.7279,3.7344,3.7338,3.7563,3.7589,3.7378,3.738,3.7382,0,3.7239,3.7282,3.7269,3.7287,3.7286,3.7316,3.733,3.7287,3.7304,3.7306,3.7339,3.7364,3.738,3.7431,3.7409,3.7429,3.7407,3.7484,3.7409,3.742,3.7406,3.7403,3.7407,3.7498,3.7501,3.7503,3.7505,0,3.742,3.7403,3.7425,3.7443,3.7461,3.7473,3.748,3.7498,3.7454,3.7476,3.7505,3.7519,3.7546,3.7571,3.7586,3.758,3.7535,3.7529,3.7545,3.7557,3.7567,3.7561,3.7326,3.7523,3.7522,3.752,3.7519,3.7518,3.7556,3.7591,3.7588,3.7615,3.7616,3.7625,3.7655,3.7639,3.7663,3.7682,3.7655,3.7692,3.769,3.7705,3.7705,3.7733,3.77,3.7722,3.7728,3.7734,3.7743,3.7565,3.7736,3.7735,3.7735,3.7734,3.7734,0,3.7732,3.7728,3.7753,3.7766,3.7787,3.7745,3.7751,3.7772,3.7805,3.7807,3.7826,3.7861,3.7885,3.7867,3.7887,3.7913,3.7893,3.792,3.7916,3.7916,3.7772,3.7756,3.7936,3.7936,3.7936,3.7936,3.7936,3.7936,3.7826,3.7884,3.7867,3.7925,3.7919,3.7955,3.7963,3.797,3.7972,3.8013,3.8034,3.8022,3.8016,3.8036,3.8056,3.805,3.806,3.8094,3.808,3.7946,3.7926,3.7907,3.7891,3.8097,3.8097,3.8221,3.8222,3.8223]}]]